Printer-friendly version

IAU Minor Planet Center

Minor Planet Center

MPEC 2006-Q30 : 2006 BG

The following Minor Planet Electronic Circular may be linked-to from your own Web pages, but must not otherwise be redistributed electronically.


Read MPEC 2006-Q29 Read MPEC 2006-Q31


M.P.E.C. 2006-Q30                                Issued 2006 Aug. 25, 02:48 UT

     The Minor Planet Electronic Circulars contain information on unusual
         minor planets and routine data on comets.  They are published
   on behalf of Commission 20 of the International Astronomical Union by the
          Minor Planet Center, Smithsonian Astrophysical Observatory,
                          Cambridge, MA 02138, U.S.A.

                  Supported in part by the Brinson Foundation
                  Supported in part by the TABASGO Foundation
             Prepared using the Tamkin Foundation Computer Network

                              MPC@CFA.HARVARD.EDU
          URL http://cfa-www.harvard.edu/iau/mpc.html  ISSN 1523-6714

                                    2006 BG

                           Revision to MPEC 2006-B22

Additional Observations:
     K06B00G 2C2006 08 15.60444204 49 31.949+26 23 04.75         22.4 R EQ030568
     K06B00G 2C2006 08 15.60943804 49 32.288+26 23 05.73         22.2 R EQ030568
     K06B00G 2C2006 08 16.58767104 50 38.394+26 25 50.38         21.9 R EQ030568
     K06B00G 2C2006 08 16.59149004 50 38.645+26 25 51.20         21.7 R EQ030568

Observer details:
568 Mauna Kea.  Observer F. Bernardi.  2.24-m University of Hawaii reflector
    + 2048 CCD.

First and last observations above in comparison with prediction:
Residuals in seconds of arc, reference and Delta-T
060815 568  0.2-  1.4+    060816 568  0.4-  1.4+    MPO102271   -0.0013 day

Orbital elements:
2006 BG                                                  Earth MOID = 0.0674 AU
Epoch 2006 Sept. 22.0 TT = JDT 2454000.5                MPC
M  69.17395              (2000.0)            P               Q
n   0.45162482     Peri.  341.00574     -0.13584321     +0.98730371
a   1.6824836      Node   281.12175     -0.89776919     -0.15781498
e   0.7323730      Incl.    4.81302     -0.41899535     +0.01805014
P   2.18           H   18.6           G   0.15           U   4
Residuals in seconds of arc
060120 703  0.7-  1.1-    060129 246  0.9+  0.2-    060206 560  0.0   0.2+
060120 703  0.8-  1.5-    060129 246  0.6+  0.1-    060206 203  0.5-  0.5-
060120 703  0.5-  0.1-    060130 246  0.3+  0.5-    060207 703  0.1-  0.2-
060120 703  0.8-  0.7+    060130 246  0.2+  0.5-    060207 703  0.2-  0.2-
060120 703  1.3-  0.0     060130 246  0.7+  0.1-    060207 703  1.4-  0.8+
060120 703  0.1+  1.5+    060130 703  0.6-  0.3+    060207 703  0.4-  0.3-
060120 703  0.7-  0.0     060130 703  1.3-  0.6-    060209 J69  1.4+  0.6+
060120 703  1.1-  0.9+    060130 703  0.7-  0.5-    060209 J69  1.2+  0.8+
060120 703  1.2-  0.1+    060130 711  0.0   0.2+    060209 J69  1.3+  0.8+
060120 703  1.1-  0.2-    060130 711  0.2+  0.3+    060209 J69  1.2+  0.8+
060120 703  0.8-  0.1-    060130 711  0.3+  0.3+    060209 J69 (2.4+  0.6+)
060120 143  0.4-  0.5-    060130 246  0.5+  0.3+    060210 203  0.3-  0.7+
060120 143  0.0   0.2-    060130 246  0.3+  0.2+    060211 203  0.5-  0.0
060121 J95  0.2-  0.5-    060130 246  0.4+  0.1+    060214 A80  0.0   0.2+
060121 J95  0.1+  0.1-    060130 246  0.7+  0.4+    060214 A80  0.1-  0.2+
060121 J95  0.3-  0.0     060130 246  0.5+  0.1+    060214 A80  0.1-  0.0
060121 176  0.0   0.5+    060202 699  0.5-  0.4+    060218 F65  1.2+  0.2+
060121 176  0.1+  0.3+    060202 699  0.2+  0.3-    060218 F65  0.2+  0.1-
060121 176  0.4+  0.1+    060202 699  1.2+  0.6+    060218 F65  1.6+  0.5+
060121 176  0.0   0.2+    060202 699  0.9+  0.5+    060219 H36  0.1-  0.0
060121 176  0.5-  0.1-    060204 448  0.2-  0.0     060219 H36  0.2-  0.0
060121 673  0.1+  0.8+    060204 448  0.2-  0.1-    060219 H36  0.4-  0.2+
060121 673  0.3-  0.3+    060204 448  0.2-  0.0     060219 H36  0.2-  0.2-
060121 673  0.1+  0.2+    060204 F65  0.1-  0.1+    060219 H36  0.2+  0.2+
060121 673  0.2+  0.6+    060204 F65  0.1+  0.1+    060220 932  0.2-  0.3-
060122 J95  0.2+  0.3-    060204 F65  0.3+  0.1+    060220 932  0.2-  0.2-
060122 J95  0.4+  0.5-    060204 F65  0.6-  0.0     060220 932  0.3-  0.3-
060122 J95  0.2-  0.0     060204 F65  0.2-  0.2+    060227 G77 (2.5+  0.1+)
060123 704  0.5-  0.9+    060204 F65  0.1-  0.0     060227 G77  0.9-  1.9-
060123 704  0.2+  0.2+    060204 F65  0.4-  0.1+    060227 G77 (2.6+  1.4-)
060123 704  0.5+  0.3+    060204 F65  0.4-  0.2+    060227 G77 (3.9+  1.5+)
060123 704  0.4+  0.9+    060204 F65  0.8-  0.2-    060227 198  0.3+  0.1+
060123 704  0.5+  1.8+    060204 F65  1.3-  0.2-    060227 198  0.2+  0.1+
060125 246  0.8+  0.1+    060205 170  0.5-  0.3-    060227 198  0.3+  0.1+
060125 246  0.0   0.2-    060205 170  0.6-  0.3-    060227 198  0.4+  0.2+
060125 246  0.4+  0.1+    060205 170  0.4-  0.1-    060227 198  0.2+  0.1+
060125 246  0.3-  0.3+    060206 703  0.0   0.8-    060305 703  0.5-  0.1-
060125 246  0.4+  0.0     060206 703  0.6-  0.3-    060305 703  0.4-  0.1+
060125 246  1.2+  0.1+    060206 703  0.2-  0.4-    060305 703  0.3+  0.0
060125 246  0.5+  0.7+    060206 703  0.3-  0.6-    060305 703  0.1-  0.2+
060129 A17  0.2+  0.6-    060206 084  0.4-  0.9-    060815 568  0.0   0.0
060129 A17  0.1+  0.1-    060206 203  0.1+  0.1+    060815 568  0.1+  0.1+
060129 A17  0.4+  0.2-    060206 560  0.0   0.3+    060816 568  0.1-  0.1-
060129 246  0.6+  0.3-    060206 560  0.2+  0.2+    060816 568  0.1-  0.0

Ephemeris:
2006 BG                  a,e,i = 1.68, 0.73, 5                   q = 0.4503
Date    TT    R. A. (2000) Decl.     Delta      r     Elong.  Phase     V
2006 08 23    04 57.26   +26 42.5    1.844    1.838    73.7    31.9    22.6
2006 09 02    05 05.33   +27 04.6    1.793    1.924    81.5    31.3    22.6
2006 09 12    05 10.34   +27 22.8    1.733    2.005    90.1    30.1    22.6
2006 09 22    05 11.84   +27 37.5    1.666    2.081    99.4    28.4    22.6
2006 10 02    05 09.31   +27 47.9    1.598    2.153   109.7    25.9    22.5
2006 10 12    05 02.40   +27 52.0    1.535    2.221   121.1    22.6    22.3
2006 10 22    04 50.97   +27 45.7    1.484    2.286   133.4    18.4    22.2
2006 11 01    04 35.47   +27 24.4    1.452    2.346   146.7    13.4    22.0
2006 11 11    04 17.14   +26 44.5    1.447    2.403   160.5     7.9    21.9
2006 11 21    03 57.84   +25 46.6    1.473    2.457   173.3     2.7    21.7
2006 12 01    03 39.70   +24 36.7    1.532    2.507   168.7     4.4    21.9
2006 12 11    03 24.41   +23 24.2    1.624    2.554   155.6     9.2    22.3
2006 12 21    03 12.90   +22 18.2    1.745    2.597   142.7    13.3    22.7
2006 12 31    03 05.39   +21 25.0    1.889    2.638   130.7    16.4    23.0

Gareth V. Williams           (C) Copyright 2006 MPC           M.P.E.C. 2006-Q30

Read MPEC 2006-Q29 Read MPEC 2006-Q31


Our Web policy. Index to the CBAT/MPC/ICQ pages.


Valid HTML 4.01!